Location: Newark
(25.4800°N, 85.7200°E)
Time: 22:33:28
(UTC+00:00)

Explorer 11/Cluster Stage 4 - Pass Details

Date: 22 August 2019
Orbit: 467 x 1260 km, 28.8° (Epoch: 20 September)

Event Time Altitude Azimuth Distance (km) Brightness Sun altitude
Rises 02:48:08 0° 220° (SW) 3,893 9.9 38.3°
Reaches altitude 10° 02:51:04 10° 212° (SSW) 3,032 9.5 39.0°
Maximum altitude 02:57:53 34° 150° (SSE) 1,898 9.4 40.5°
Drops below altitude 10° 03:05:07 10° 89° (E) 3,231 10.8 42.1°
Sets 03:08:19 0° 81° (E) 4,179 11.0 42.9°
